Date,TemperatureHighF,TemperatureAvgF,TemperatureLowF,DewpointHighF,DewpointAvgF,DewpointLowF,HumidityHigh,HumidityAvg,HumidityLow,PressureMaxIn,PressureMinIn,WindSpeedMaxMPH,WindSpeedAvgMPH,GustSpeedMaxMPH,PrecipitationSumIn
2013-4-5,64.4,58.0,53.4,52.1,50.8,49.2,88,77,63,29.98,29.92,20,6,20,0.00
2013-4-6,69.8,58.2,53.8,58.4,53.1,48.5,95,83,60,30.03,29.96,21,7,21,0.00
2013-4-7,69.6,58.9,51.1,56.4,50.8,46.4,90,75,55,29.97,29.81,21,7,21,0.00
2013-4-8,71.4,64.1,59.9,29.0,25.8,22.1,30,24,16,29.85,29.75,22,10,23,0.04
2013-4-9,82.8,66.8,55.8,35.6,31.0,27.3,35,27,16,29.95,29.85,30,11,30,0.02
2013-4-10,94.6,77.8,62.6,59.5,46.3,34.3,41,33,26,30.01,29.78,24,7,24,0.00
2013-4-11,86.9,69.3,48.9,53.3,42.3,32.6,88,44,16,29.85,29.64,22,4,22,0.00
2013-4-12,87.3,66.8,45.7,57.8,46.4,38.8,90,52,23,29.74,29.60,12,2,12,0.01
2013-4-13,86.2,65.2,46.9,57.7,48.8,40.8,86,58,33,29.73,29.58,13,2,13,0.00
2013-4-14,78.4,61.9,44.2,53.3,42.2,30.2,82,53,22,29.75,29.57,28,7,28,0.00
2013-4-15,73.4,58.2,44.8,53.4,39.2,30.5,83,52,26,29.76,29.62,21,5,21,0.00
2013-4-16,71.2,59.6,51.1,31.3,23.8,17.1,45,26,14,30.01,29.76,25,11,25,0.00
2013-4-17,72.1,61.3,52.7,30.1,24.1,17.1,38,25,13,30.12,30.01,24,9,24,0.00
2013-4-18,80.8,66.9,54.9,44.1,31.7,22.2,56,28,17,30.11,30.00,20,5,20,0.00
2013-4-19,90.0,67.8,47.7,56.2,47.3,39.8,77,51,28,30.08,29.85,14,3,14,0.00
2013-4-20,91.0,72.7,59.2,50.8,39.5,32.0,53,32,15,29.94,29.76,21,6,21,0.00
2013-4-21,92.7,72.2,50.2,52.6,43.8,35.5,76,41,16,29.87,29.73,21,4,21,0.00
2013-4-22,91.6,76.2,59.9,48.2,37.9,20.0,62,29,11,29.80,29.66,20,7,20,0.00
2013-4-23,88.9,73.8,58.1,44.0,26.0,13.3,48,18,10,29.79,29.65,24,9,24,0.00
2013-4-24,91.6,68.7,50.0,52.7,39.6,26.6,72,41,14,29.69,29.58,24,7,24,0.00
2013-4-25,78.8,64.0,49.6,54.8,47.6,41.2,77,56,42,29.89,29.66,24,8,24,0.00
2013-4-26,87.3,66.0,47.7,59.9,50.9,43.6,89,62,37,30.05,29.89,14,3,14,0.00
2013-4-27,93.7,69.7,50.5,62.9,53.0,45.3,85,59,31,30.04,29.83,14,2,14,0.00
2013-4-28,95.4,73.6,53.6,60.1,53.4,47.9,86,54,23,29.87,29.66,12,3,12,0.00
2013-4-29,96.4,81.6,64.4,58.1,48.7,39.6,71,34,19,29.72,29.54,17,5,17,0.00
2013-4-30,87.4,76.8,62.6,52.2,28.2,13.7,58,20,10,29.70,29.57,26,11,26,0.00